| time (UTC) | temp F | wind direction | speed knots | gust knots | rain 1hr in | rain 24hr in | rain mn in | humidity % | barometer mb |
| 20260831023243 | 86 | 134 | 3.5 | 4.3 | 0.00 | 0.00 | 0.00 | 69 | 1010.3 |
| 20260831023010 | 86 | 134 | 2.6 | 4.3 | 0.00 | 0.00 | 0.00 | 69 | 1007.5 |
| 20260831022725 | 87 | 134 | 2.6 | 4.3 | 0.00 | 0.00 | 0.00 | 69 | 1010.3 |
| 20260831022237 | 87 | 134 | 2.6 | 4.3 | 0.00 | 0.00 | 0.00 | 69 | 1010.3 |
| 20260831021746 | 87 | 134 | 2.6 | 4.3 | 0.00 | 0.00 | 0.00 | 68 | 1010.3 |
| 20260831021555 | 86 | 134 | 2.6 | 6.1 | 0.00 | 0.00 | 0.00 | 68 | 1007.3 |
| 20260831021239 | 87 | 113 | 3.5 | 6.1 | 0.00 | 0.00 | 0.00 | 67 | 1010.3 |
| 20260831020809 | 87 | 130 | 3.5 | 6.1 | 0.00 | 0.00 | 0.00 | 66 | 1010.2 |
| 20260831020231 | 88 | 131 | 2.6 | 3.5 | 0.00 | 0.00 | 0.00 | 66 | 1010.2 |
| 20260831020045 | 87 | 136 | 1.7 | 3.5 | 0.00 | 0.00 | 0.00 | 66 | 1007.3 |
| 20260831015743 | 88 | 207 | 2.6 | 3.5 | 0.00 | 0.00 | 0.00 | 65 | 1010.2 |
| 20260831015227 | 88 | 207 | 2.6 | 3.5 | 0.00 | 0.00 | 0.00 | 65 | 1010.2 |
| 20260831014734 | 89 | 207 | 2.6 | 3.5 | 0.00 | 0.00 | 0.00 | 64 | 1010.0 |
| 20260831014551 | 88 | 207 | 1.7 | 3.5 | 0.00 | 0.00 | 0.00 | 64 | 1007.0 |
| 20260831014309 | 89 | 207 | 1.7 | 2.6 | 0.00 | 0.00 | 0.00 | 64 | 1009.9 |
| 20260831013731 | 89 | 207 | 2.6 | 2.6 | 0.00 | 0.00 | 0.00 | 63 | 1009.9 |
| 20260831013243 | 90 | 207 | 1.7 | 2.6 | 0.00 | 0.00 | 0.00 | 62 | 1009.9 |
| 20260831013034 | 89 | 207 | 1.7 | 2.6 | 0.00 | 0.00 | 0.00 | 62 | 1006.9 |
| 20260831012725 | 90 | 207 | 0.9 | 2.6 | 0.00 | 0.00 | 0.00 | 61 | 1009.8 |
| 20260831012256 | 90 | 207 | 1.7 | 2.6 | 0.00 | 0.00 | 0.00 | 61 | 1009.8 |
| 20260831011743 | 90 | 207 | 0.9 | 1.7 | 0.00 | 0.00 | 0.00 | 60 | 1009.8 |
| 20260831011515 | 90 | 207 | 0.0 | 1.7 | 0.00 | 0.00 | 0.00 | 60 | 1007.0 |
| 20260831011229 | 91 | 207 | 0.9 | 1.7 | 0.00 | 0.00 | 0.00 | 60 | 1009.8 |
| 20260831010800 | 91 | 207 | 1.7 | 1.7 | 0.00 | 0.00 | 0.00 | 60 | 1009.8 |
| 20260831010249 | 91 | 207 | 0.9 | 1.7 | 0.00 | 0.00 | 0.00 | 59 | 1009.7 |
| 20260831010042 | 91 | 207 | 0.0 | 1.7 | 0.00 | 0.00 | 0.00 | 59 | 1006.8 |
| 20260831005740 | 92 | 207 | 0.9 | 1.7 | 0.00 | 0.00 | 0.00 | 59 | 1009.7 |
| 20260831005254 | 92 | 207 | 1.7 | 1.7 | 0.00 | 0.00 | 0.00 | 58 | 1009.7 |
| 20260831004802 | 92 | 207 | 0.9 | 2.6 | 0.00 | 0.00 | 0.00 | 58 | 1009.7 |
| 20260831004558 | 92 | 207 | 0.9 | 2.6 | 0.00 | 0.00 | 0.00 | 58 | 1006.7 |
| 20260831004228 | 93 | 207 | 0.9 | 2.6 | 0.00 | 0.00 | 0.00 | 58 | 1009.7 |
| 20260831003739 | 93 | 207 | 1.7 | 2.6 | 0.00 | 0.00 | 0.00 | 58 | 1009.7 |
| 20260831003223 | 93 | 207 | 1.7 | 2.6 | 0.00 | 0.00 | 0.00 | 58 | 1009.7 |
| 20260831003007 | 93 | 207 | 0.9 | 2.6 | 0.00 | 0.00 | 0.00 | 58 | 1006.8 |
| 20260831002755 | 93 | 207 | 1.7 | 2.6 | 0.00 | 0.00 | 0.00 | 58 | 1009.8 |
| 20260831002248 | 93 | 207 | 1.7 | 2.6 | 0.00 | 0.00 | 0.00 | 58 | 1009.7 |
| 20260831001734 | 93 | 207 | 1.7 | 2.6 | 0.00 | 0.00 | 0.00 | 58 | 1009.7 |
| 20260831001551 | 93 | 207 | 1.7 | 2.6 | 0.00 | 0.00 | 0.00 | 58 | 1006.8 |
| 20260831001246 | 94 | 207 | 1.7 | 2.6 | 0.00 | 0.00 | 0.00 | 58 | 1009.8 |
| 20260831000733 | 94 | 207 | 1.7 | 2.6 | 0.00 | 0.00 | 0.00 | 58 | 1009.7 |
| 20260831000248 | 94 | 207 | 1.7 | 2.6 | 0.00 | 0.00 | 0.00 | 58 | 1009.7 |
| 20260831000039 | 93 | 207 | 1.7 | 3.5 | 0.00 | 0.00 | 0.00 | 57 | 1006.8 |
| 20260830235727 | 94 | 207 | 1.7 | 3.5 | 0.00 | 0.00 | 0.00 | 57 | 1009.7 |
| 20260830235238 | 94 | 207 | 1.7 | 3.5 | 0.00 | 0.00 | 0.00 | 57 | 1009.8 |
| 20260830234721 | 95 | 207 | 1.7 | 3.5 | 0.00 | 0.00 | 0.00 | 58 | 1009.7 |
| 20260830234555 | 94 | 207 | 0.9 | 3.5 | 0.00 | 0.00 | 0.00 | 58 | 1006.9 |
| 20260830234237 | 95 | 207 | 1.7 | 3.5 | 0.00 | 0.00 | 0.00 | 58 | 1009.8 |
| 20260830233750 | 95 | 207 | 1.7 | 3.5 | 0.00 | 0.00 | 0.00 | 58 | 1009.8 |
| 20260830233237 | 95 | 207 | 2.6 | 4.3 | 0.00 | 0.00 | 0.00 | 57 | 1009.7 |
| 20260830233043 | 95 | 207 | 1.7 | 4.3 | 0.00 | 0.00 | 0.00 | 57 | 1006.8 |
| 20260830232748 | 96 | 207 | 2.6 | 5.2 | 0.00 | 0.00 | 0.00 | 57 | 1009.7 |
| 20260830232230 | 96 | 207 | 3.5 | 6.1 | 0.00 | 0.00 | 0.00 | 55 | 1009.7 |
| 20260830231803 | 96 | 207 | 3.5 | 6.1 | 0.00 | 0.00 | 0.00 | 54 | 1009.6 |
| 20260830231526 | 96 | 198 | 4.3 | 6.1 | 0.00 | 0.00 | 0.00 | 55 | 1006.7 |
| 20260830231229 | 96 | 201 | 3.5 | 6.1 | 0.00 | 0.00 | 0.00 | 55 | 1009.6 |
| 20260830230742 | 96 | 199 | 3.5 | 6.1 | 0.00 | 0.00 | 0.00 | 55 | 1009.6 |
| 20260830230227 | 96 | 182 | 4.3 | 6.1 | 0.00 | 0.00 | 0.00 | 56 | 1009.5 |
| 20260830230037 | 96 | 208 | 2.6 | 6.1 | 0.00 | 0.00 | 0.00 | 56 | 1006.6 |
| 20260830225754 | 96 | 224 | 3.5 | 5.2 | 0.00 | 0.00 | 0.00 | 55 | 1009.5 |
| 20260830225244 | 96 | 182 | 3.5 | 8.7 | 0.00 | 0.00 | 0.00 | 56 | 1009.5 |
| 20260830224728 | 96 | 202 | 4.3 | 8.7 | 0.00 | 0.00 | 0.00 | 55 | 1009.4 |
| 20260830224525 | 95 | 196 | 5.2 | 8.7 | 0.00 | 0.00 | 0.00 | 55 | 1006.6 |
| 20260830224243 | 96 | 218 | 5.2 | 7.0 | 0.00 | 0.00 | 0.00 | 55 | 1009.4 |
| 20260830223723 | 95 | 215 | 4.3 | 8.7 | 0.00 | 0.00 | 0.00 | 55 | 1009.4 |
| 20260830223234 | 96 | 215 | 6.1 | 8.7 | 0.00 | 0.00 | 0.00 | 54 | 1009.5 |
| 20260830223018 | 95 | 191 | 4.3 | 9.6 | 0.00 | 0.00 | 0.00 | 55 | 1006.6 |
| 20260830222745 | 96 | 185 | 5.2 | 9.6 | 0.00 | 0.00 | 0.00 | 55 | 1009.5 |
| 20260830222227 | 95 | 177 | 5.2 | 8.7 | 0.00 | 0.00 | 0.00 | 54 | 1009.5 |
| 20260830221734 | 95 | 209 | 5.2 | 8.7 | 0.00 | 0.00 | 0.00 | 57 | 1009.4 |
| 20260830221542 | 94 | 200 | 4.3 | 8.7 | 0.00 | 0.00 | 0.00 | 57 | 1006.6 |
| 20260830221246 | 95 | 202 | 5.2 | 7.8 | 0.00 | 0.00 | 0.00 | 58 | 1009.4 |
| 20260830220725 | 94 | 197 | 5.2 | 7.8 | 0.00 | 0.00 | 0.00 | 57 | 1009.5 |
| 20260830220237 | 94 | 215 | 4.3 | 7.0 | 0.00 | 0.00 | 0.00 | 58 | 1009.5 |
| 20260830220034 | 94 | 211 | 3.5 | 6.1 | 0.00 | 0.00 | 0.00 | 59 | 1006.7 |
| 20260830215721 | 94 | 192 | 3.5 | 6.1 | 0.00 | 0.00 | 0.00 | 58 | 1009.6 |
| 20260830215233 | 93 | 195 | 3.5 | 6.1 | 0.00 | 0.00 | 0.00 | 59 | 1009.7 |
| 20260830214746 | 93 | 214 | 4.3 | 6.1 | 0.00 | 0.00 | 0.00 | 59 | 1009.5 |
| 20260830214534 | 93 | 200 | 2.6 | 4.3 | 0.00 | 0.00 | 0.00 | 59 | 1006.6 |
| 20260830214231 | 93 | 211 | 3.5 | 4.3 | 0.00 | 0.00 | 0.00 | 61 | 1009.4 |
| 20260830213756 | 93 | 198 | 2.6 | 5.2 | 0.00 | 0.00 | 0.00 | 57 | 1009.4 |
| 20260830213306 | 93 | 177 | 3.5 | 6.1 | 0.00 | 0.00 | 0.00 | 54 | 1009.4 |
| 20260830213053 | 93 | 194 | 3.5 | 6.1 | 0.00 | 0.00 | 0.00 | 54 | 1006.5 |
| 20260830212726 | 94 | 184 | 4.3 | 6.1 | 0.00 | 0.00 | 0.00 | 54 | 1009.5 |
| 20260830212238 | 94 | 202 | 3.5 | 7.0 | 0.00 | 0.00 | 0.00 | 53 | 1009.4 |
| 20260830211808 | 94 | 198 | 3.5 | 9.6 | 0.00 | 0.00 | 0.00 | 55 | 1009.5 |
| 20260830211531 | 93 | 205 | 4.3 | 10.4 | 0.00 | 0.00 | 0.00 | 54 | 1006.7 |
| 20260830211230 | 94 | 215 | 6.1 | 10.4 | 0.00 | 0.00 | 0.00 | 53 | 1009.5 |
| 20260830210734 | 93 | 204 | 7.0 | 8.7 | 0.00 | 0.00 | 0.00 | 55 | 1009.6 |
| 20260830210246 | 92 | 199 | 6.1 | 13.0 | 0.00 | 0.00 | 0.00 | 58 | 1009.6 |
| 20260830210036 | 91 | 217 | 6.1 | 13.0 | 0.00 | 0.00 | 0.00 | 58 | 1006.7 |
| 20260830205729 | 92 | 217 | 7.8 | 10.4 | 0.00 | 0.00 | 0.00 | 60 | 1009.7 |
| 20260830205242 | 91 | 205 | 7.0 | 9.6 | 0.00 | 0.00 | 0.00 | 62 | 1009.8 |
| 20260830204726 | 90 | 221 | 5.2 | 9.6 | 0.00 | 0.00 | 0.00 | 66 | 1009.8 |
| 20260830204552 | 89 | 213 | 5.2 | 9.6 | 0.00 | 0.00 | 0.00 | 67 | 1007.0 |
| 20260830204241 | 89 | 212 | 6.1 | 8.7 | 0.00 | 0.00 | 0.00 | 64 | 1010.1 |
| 20260830203752 | 89 | 211 | 5.2 | 9.6 | 0.00 | 0.00 | 0.00 | 62 | 1010.2 |
| 20260830203244 | 90 | 222 | 5.2 | 9.6 | 0.00 | 0.00 | 0.00 | 60 | 1010.1 |
| 20260830203031 | 90 | 218 | 7.0 | 9.6 | 0.00 | 0.00 | 0.00 | 59 | 1007.5 |
| 20260830202723 | 91 | 214 | 6.1 | 8.7 | 0.00 | 0.00 | 0.00 | 58 | 1010.1 |
| 20260830202235 | 91 | 231 | 5.2 | 8.7 | 0.00 | 0.00 | 0.00 | 58 | 1009.9 |
| 20260830201747 | 92 | 208 | 5.2 | 8.7 | 0.00 | 0.00 | 0.00 | 57 | 1009.8 |
| 20260830201537 | 91 | 207 | 3.5 | 8.7 | 0.00 | 0.00 | 0.00 | 57 | 1006.9 |
| 20260830201234 | 92 | 218 | 4.3 | 8.7 | 0.00 | 0.00 | 0.00 | 56 | 1009.6 |
| 20260830200745 | 92 | 219 | 5.2 | 8.7 | 0.00 | 0.00 | 0.00 | 58 | 1009.7 |
| 20260830200228 | 92 | 209 | 5.2 | 8.7 | 0.00 | 0.00 | 0.00 | 57 | 1009.8 |
| 20260830200045 | 92 | 207 | 5.2 | 8.7 | 0.00 | 0.00 | 0.00 | 58 | 1007.0 |
| 20260830195740 | 92 | 197 | 6.1 | 8.7 | 0.00 | 0.00 | 0.00 | 57 | 1010.0 |
| 20260830195224 | 92 | 203 | 6.1 | 10.4 | 0.00 | 0.00 | 0.00 | 61 | 1010.1 |
| 20260830194729 | 92 | 218 | 6.1 | 10.4 | 0.00 | 0.00 | 0.00 | 60 | 1010.3 |
| 20260830194515 | 91 | 225 | 7.0 | 10.4 | 0.00 | 0.00 | 0.00 | 59 | 1007.6 |
| 20260830194244 | 91 | 214 | 7.8 | 11.3 | 0.00 | 0.00 | 0.00 | 62 | 1010.3 |
| 20260830193726 | 91 | 213 | 4.3 | 9.6 | 0.00 | 0.00 | 0.00 | 63 | 1010.4 |
| 20260830193238 | 90 | 203 | 7.0 | 9.6 | 0.00 | 0.00 | 0.00 | 63 | 1010.6 |
| 20260830193015 | 90 | 200 | 6.1 | 10.4 | 0.00 | 0.00 | 0.00 | 63 | 1007.8 |
| 20260830192748 | 90 | 197 | 6.1 | 8.7 | 0.00 | 0.00 | 0.00 | 64 | 1010.5 |
| 20260830192230 | 90 | 208 | 6.1 | 9.6 | 0.00 | 0.00 | 0.00 | 64 | 1010.4 |
| 20260830191741 | 90 | 194 | 5.2 | 10.4 | 0.00 | 0.00 | 0.00 | 63 | 1010.4 |
| 20260830191518 | 89 | 210 | 6.1 | 8.7 | 0.00 | 0.00 | 0.00 | 63 | 1007.6 |
| 20260830191225 | 90 | 207 | 5.2 | 8.7 | 0.00 | 0.00 | 0.00 | 63 | 1010.4 |
| 20260830190731 | 90 | 203 | 5.2 | 8.7 | 0.00 | 0.00 | 0.00 | 62 | 1010.3 |
| 20260830190302 | 90 | 202 | 6.1 | 9.6 | 0.00 | 0.00 | 0.00 | 59 | 1010.3 |
| 20260830190124 | 90 | 217 | 4.3 | 9.6 | 0.00 | 0.00 | 0.00 | 60 | 1007.4 |
| 20260830185724 | 90 | 159 | 5.2 | 9.6 | 0.00 | 0.00 | 0.00 | 60 | 1010.0 |
| 20260830185236 | 90 | 207 | 5.2 | 8.7 | 0.00 | 0.00 | 0.00 | 62 | 1010.2 |
| 20260830184749 | 90 | 190 | 5.2 | 10.4 | 0.00 | 0.00 | 0.00 | 62 | 1010.2 |
| 20260830184539 | 89 | 209 | 6.1 | 10.4 | 0.00 | 0.00 | 0.00 | 62 | 1007.5 |
| 20260830184241 | 89 | 153 | 6.1 | 10.4 | 0.00 | 0.00 | 0.00 | 61 | 1010.3 |
| 20260830183723 | 89 | 209 | 5.2 | 7.8 | 0.00 | 0.00 | 0.00 | 63 | 1010.2 |
| 20260830183249 | 89 | 205 | 5.2 | 8.7 | 0.00 | 0.00 | 0.00 | 61 | 1010.2 |
| 20260830183051 | 88 | 213 | 4.3 | 8.7 | 0.00 | 0.00 | 0.00 | 61 | 1007.6 |
| 20260830182730 | 89 | 180 | 5.2 | 8.7 | 0.00 | 0.00 | 0.00 | 60 | 1010.3 |
| 20260830182240 | 89 | 203 | 4.3 | 9.6 | 0.00 | 0.00 | 0.00 | 61 | 1010.4 |
| 20260830181722 | 89 | 174 | 5.2 | 12.2 | 0.00 | 0.00 | 0.00 | 60 | 1010.5 |
| 20260830181554 | 88 | 215 | 7.8 | 11.3 | 0.00 | 0.00 | 0.00 | 59 | 1007.7 |
| 20260830181234 | 89 | 210 | 7.8 | 15.6 | 0.00 | 0.00 | 0.00 | 59 | 1010.5 |
| 20260830180743 | 89 | 183 | 7.8 | 15.6 | 0.00 | 0.00 | 0.00 | 57 | 1010.7 |
| 20260830180227 | 90 | 186 | 10.4 | 14.8 | 0.00 | 0.00 | 0.00 | 57 | 1010.7 |
| 20260830180110 | 90 | 190 | 9.6 | 12.2 | 0.00 | 0.00 | 0.00 | 55 | 1008.0 |
| 20260830180002 | 90 | 209 | 8.7 | 14.8 | 0.00 | 0.00 | 0.00 | 56 | 1008.0 |
| 20260830175734 | 90 | 200 | 8.7 | 14.8 | 0.00 | 0.00 | 0.00 | 58 | 1010.7 |
| 20260830175244 | 90 | 219 | 8.7 | 14.8 | 0.00 | 0.00 | 0.00 | 56 | 1010.7 |
| 20260830174727 | 90 | 212 | 9.6 | 17.4 | 0.00 | 0.00 | 0.00 | 56 | 1010.7 |
| 20260830174515 | 89 | 170 | 9.6 | 14.8 | 0.00 | 0.00 | 0.00 | 57 | 1008.0 |
| 20260830174240 | 90 | 189 | 9.6 | 14.8 | 0.00 | 0.00 | 0.00 | 57 | 1010.7 |
| 20260830173722 | 90 | 183 | 8.7 | 14.8 | 0.00 | 0.00 | 0.00 | 55 | 1010.8 |
| 20260830173233 | 91 | 213 | 9.6 | 15.6 | 0.00 | 0.00 | 0.00 | 54 | 1010.8 |
| 20260830173012 | 90 | 160 | 9.6 | 15.6 | 0.00 | 0.00 | 0.00 | 54 | 1008.2 |
| 20260830172804 | 91 | 169 | 7.8 | 15.6 | 0.00 | 0.00 | 0.00 | 54 | 1010.8 |
| 20260830172227 | 91 | 210 | 7.8 | 15.6 | 0.00 | 0.00 | 0.00 | 55 | 1010.9 |
| 20260830171734 | 91 | 215 | 8.7 | 12.2 | 0.00 | 0.00 | 0.00 | 56 | 1010.9 |
| 20260830171549 | 91 | 192 | 7.8 | 12.2 | 0.00 | 0.00 | 0.00 | 55 | 1008.2 |
| 20260830171307 | 91 | 202 | 7.8 | 13.0 | 0.00 | 0.00 | 0.00 | 56 | 1010.8 |
| 20260830170729 | 91 | 173 | 9.6 | 13.9 | 0.00 | 0.00 | 0.00 | 56 | 1010.8 |
| 20260830170301 | 91 | 173 | 8.7 | 13.9 | 0.00 | 0.00 | 0.00 | 57 | 1010.8 |
| 20260830170055 | 90 | 138 | 9.6 | 13.0 | 0.00 | 0.00 | 0.00 | 56 | 1008.2 |
| 20260830165722 | 91 | 157 | 7.8 | 13.0 | 0.00 | 0.00 | 0.00 | 57 | 1010.8 |
| 20260830165252 | 91 | 177 | 6.1 | 13.9 | 0.00 | 0.00 | 0.00 | 60 | 1010.8 |
| 20260830164738 | 90 | 175 | 7.0 | 13.9 | 0.00 | 0.00 | 0.00 | 59 | 1010.8 |
| 20260830164534 | 89 | 171 | 7.8 | 13.9 | 0.00 | 0.00 | 0.00 | 58 | 1008.2 |
| 20260830164223 | 90 | 147 | 7.0 | 13.0 | 0.00 | 0.00 | 0.00 | 61 | 1010.9 |
| 20260830163731 | 89 | 171 | 7.0 | 13.9 | 0.00 | 0.00 | 0.00 | 60 | 1010.9 |
| 20260830163242 | 89 | 180 | 8.7 | 17.4 | 0.00 | 0.00 | 0.00 | 58 | 1010.8 |
| 20260830163041 | 88 | 186 | 7.0 | 17.4 | 0.00 | 0.00 | 0.00 | 59 | 1008.2 |
| 20260830162724 | 89 | 153 | 10.4 | 17.4 | 0.00 | 0.00 | 0.00 | 59 | 1010.8 |
| 20260830162234 | 88 | 165 | 7.0 | 12.2 | 0.00 | 0.00 | 0.00 | 60 | 1010.7 |
| 20260830161746 | 88 | 184 | 8.7 | 13.9 | 0.00 | 0.00 | 0.00 | 60 | 1010.8 |
| 20260830161549 | 87 | 185 | 6.1 | 10.4 | 0.00 | 0.00 | 0.00 | 60 | 1008.2 |
| 20260830161231 | 88 | 171 | 7.8 | 10.4 | 0.00 | 0.00 | 0.00 | 62 | 1010.8 |
| 20260830160736 | 87 | 167 | 7.0 | 10.4 | 0.00 | 0.00 | 0.00 | 62 | 1010.8 |
| 20260830160248 | 87 | 171 | 7.0 | 13.0 | 0.00 | 0.00 | 0.00 | 60 | 1010.7 |
| 20260830160042 | 87 | 190 | 7.0 | 13.0 | 0.00 | 0.00 | 0.00 | 62 | 1008.1 |
| 20260830155732 | 87 | 157 | 7.0 | 13.0 | 0.00 | 0.00 | 0.00 | 62 | 1010.7 |
| 20260830155243 | 86 | 159 | 7.0 | 9.6 | 0.00 | 0.00 | 0.00 | 61 | 1010.8 |
| 20260830154732 | 86 | 132 | 7.0 | 8.7 | 0.00 | 0.00 | 0.00 | 60 | 1010.8 |
| 20260830154516 | 86 | 162 | 5.2 | 9.6 | 0.00 | 0.00 | 0.00 | 61 | 1008.3 |
| 20260830154245 | 86 | 177 | 6.1 | 10.4 | 0.00 | 0.00 | 0.00 | 62 | 1010.9 |
| 20260830153726 | 86 | 173 | 6.1 | 8.7 | 0.00 | 0.00 | 0.00 | 63 | 1011.0 |
| 20260830153234 | 86 | 200 | 5.2 | 13.0 | 0.00 | 0.00 | 0.00 | 63 | 1010.9 |
| 20260830153014 | 85 | 185 | 7.0 | 13.0 | 0.00 | 0.00 | 0.00 | 63 | 1008.3 |
| 20260830152745 | 85 | 186 | 7.0 | 13.0 | 0.00 | 0.00 | 0.00 | 63 | 1011.0 |
| 20260830152228 | 85 | 185 | 6.1 | 8.7 | 0.00 | 0.00 | 0.00 | 66 | 1010.9 |
| 20260830151738 | 84 | 161 | 5.2 | 9.6 | 0.00 | 0.00 | 0.00 | 66 | 1010.7 |
| 20260830151512 | 83 | 173 | 6.1 | 9.6 | 0.00 | 0.00 | 0.00 | 66 | 1008.2 |
| 20260830151250 | 84 | 165 | 3.5 | 7.8 | 0.00 | 0.00 | 0.00 | 68 | 1010.8 |
| 20260830150738 | 83 | 162 | 5.2 | 7.8 | 0.00 | 0.00 | 0.00 | 69 | 1010.8 |
| 20260830150249 | 82 | 161 | 3.5 | 8.7 | 0.00 | 0.00 | 0.00 | 68 | 1010.7 |
| 20260830150046 | 82 | 153 | 3.5 | 8.7 | 0.00 | 0.00 | 0.00 | 69 | 1008.2 |
| 20260830145733 | 82 | 167 | 7.0 | 8.7 | 0.00 | 0.00 | 0.00 | 70 | 1010.7 |
| 20260830145238 | 81 | 163 | 4.3 | 7.8 | 0.00 | 0.00 | 0.00 | 69 | 1010.7 |
| 20260830144748 | 81 | 171 | 4.3 | 8.7 | 0.00 | 0.00 | 0.00 | 69 | 1010.8 |
| 20260830144546 | 80 | 160 | 1.7 | 8.7 | 0.00 | 0.00 | 0.00 | 69 | 1008.2 |
| 20260830144231 | 81 | 192 | 5.2 | 9.6 | 0.00 | 0.00 | 0.00 | 69 | 1010.7 |
| 20260830143742 | 80 | 166 | 6.1 | 9.6 | 0.00 | 0.00 | 0.00 | 69 | 1010.2 |
| 20260830143224 | 80 | 175 | 5.2 | 9.6 | 0.00 | 0.00 | 0.00 | 70 | 1010.4 |
| 20260830143042 | 79 | 177 | 6.1 | 9.6 | 0.00 | 0.00 | 0.00 | 71 | 1007.7 |
| 20260830142736 | 80 | 138 | 6.1 | 9.6 | 0.00 | 0.00 | 0.00 | 71 | 1010.2 |
| 20260830142221 | 79 | 144 | 4.3 | 7.8 | 0.00 | 0.00 | 0.00 | 72 | 1010.3 |
| 20260830141732 | 79 | 161 | 5.2 | 10.4 | 0.00 | 0.00 | 0.00 | 72 | 1010.4 |
| 20260830141545 | 78 | 178 | 5.2 | 10.4 | 0.00 | 0.00 | 0.00 | 72 | 1007.8 |
| 20260830141241 | 79 | 176 | 5.2 | 10.4 | 0.00 | 0.00 | 0.00 | 71 | 1010.5 |
| 20260830140722 | 79 | 174 | 4.3 | 7.0 | 0.00 | 0.00 | 0.00 | 71 | 1010.5 |
| 20260830140235 | 78 | 155 | 4.3 | 7.8 | 0.00 | 0.00 | 0.00 | 71 | 1010.6 |
| 20260830140050 | 78 | 153 | 3.5 | 7.8 | 0.00 | 0.00 | 0.00 | 71 | 1008.0 |
| 20260830135745 | 78 | 143 | 4.3 | 7.0 | 0.00 | 0.00 | 0.00 | 71 | 1010.5 |
| 20260830135229 | 78 | 150 | 3.5 | 6.1 | 0.00 | 0.00 | 0.00 | 71 | 1010.5 |
| 20260830134800 | 78 | 139 | 1.7 | 6.1 | 0.00 | 0.00 | 0.00 | 72 | 1010.6 |
| 20260830134541 | 78 | 139 | 1.7 | 6.1 | 0.00 | 0.00 | 0.00 | 72 | 1008.0 |
| 20260830134223 | 78 | 139 | 3.5 | 6.1 | 0.00 | 0.00 | 0.00 | 72 | 1010.5 |
| 20260830133731 | 78 | 136 | 3.5 | 4.3 | 0.00 | 0.00 | 0.00 | 72 | 1010.5 |
| 20260830133243 | 78 | 140 | 2.6 | 4.3 | 0.00 | 0.00 | 0.00 | 72 | 1010.5 |
| 20260830133036 | 77 | 128 | 2.6 | 6.1 | 0.00 | 0.00 | 0.00 | 71 | 1008.0 |
| 20260830132725 | 78 | 146 | 1.7 | 8.7 | 0.00 | 0.00 | 0.00 | 72 | 1010.7 |
| 20260830132238 | 78 | 146 | 2.6 | 8.7 | 0.00 | 0.00 | 0.00 | 71 | 1010.7 |
| 20260830131722 | 78 | 138 | 4.3 | 7.0 | 0.00 | 0.00 | 0.00 | 71 | 1010.6 |
| 20260830131534 | 77 | 139 | 2.6 | 7.8 | 0.00 | 0.00 | 0.00 | 71 | 1008.2 |
| 20260830131235 | 78 | 157 | 3.5 | 7.8 | 0.00 | 0.00 | 0.00 | 71 | 1010.6 |
| 20260830130745 | 78 | 207 | 4.3 | 8.7 | 0.00 | 0.00 | 0.00 | 71 | 1010.6 |
| 20260830130251 | 78 | 160 | 5.2 | 9.6 | 0.00 | 0.00 | 0.00 | 71 | 1010.6 |
| 20260830130002 | 77 | 157 | 5.2 | 9.6 | 0.00 | 0.00 | 0.00 | 71 | 1008.1 |
| 20260830125740 | 78 | 157 | 5.2 | 9.6 | 0.00 | 0.00 | 0.00 | 71 | 1010.6 |
| 20260830125225 | 78 | 160 | 6.1 | 9.6 | 0.00 | 0.00 | 0.00 | 70 | 1010.5 |
| 20260830124734 | 78 | 161 | 6.1 | 10.4 | 0.00 | 0.00 | 0.00 | 70 | 1010.6 |
| 20260830124511 | 77 | 163 | 6.1 | 13.0 | 0.00 | 0.00 | 0.00 | 70 | 1008.1 |
| 20260830124247 | 78 | 195 | 7.8 | 13.0 | 0.00 | 0.00 | 0.00 | 69 | 1010.5 |
| 20260830123727 | 78 | 147 | 8.7 | 13.0 | 0.00 | 0.00 | 0.00 | 69 | 1010.5 |
| 20260830123238 | 77 | 165 | 8.7 | 10.4 | 0.00 | 0.00 | 0.00 | 69 | 1010.6 |
| 20260830123010 | 77 | 178 | 7.0 | 11.3 | 0.00 | 0.00 | 0.00 | 69 | 1008.2 |
| 20260830122751 | 77 | 166 | 7.8 | 10.4 | 0.00 | 0.00 | 0.00 | 69 | 1010.7 |
| 20260830122238 | 77 | 197 | 7.0 | 9.6 | 0.00 | 0.00 | 0.00 | 70 | 1010.8 |
| 20260830121749 | 77 | 164 | 7.0 | 10.4 | 0.00 | 0.00 | 0.00 | 70 | 1010.8 |
| 20260830121553 | 77 | 163 | 7.8 | 12.2 | 0.00 | 0.00 | 0.00 | 70 | 1008.4 |
| 20260830121234 | 77 | 163 | 7.8 | 13.0 | 0.00 | 0.00 | 0.00 | 70 | 1010.7 |
| 20260830120742 | 77 | 165 | 7.8 | 13.0 | 0.00 | 0.00 | 0.00 | 70 | 1010.7 |
| 20260830120228 | 77 | 176 | 7.0 | 10.4 | 0.00 | 0.00 | 0.00 | 71 | 1010.7 |
| 20260830115739 | 77 | 175 | 7.0 | 10.4 | 0.00 | 0.00 | 0.00 | 71 | 1010.7 |
| 20260830115222 | 77 | 180 | 7.0 | 8.7 | 0.00 | 0.00 | 0.00 | 71 | 1010.6 |
| 20260830114734 | 76 | 183 | 6.1 | 8.7 | 0.00 | 0.00 | 0.00 | 72 | 1010.6 |
| 20260830114558 | 76 | 162 | 4.3 | 7.8 | 0.00 | 0.00 | 0.00 | 72 | 1008.2 |
| 20260830114303 | 76 | 156 | 3.5 | 6.1 | 0.00 | 0.00 | 0.00 | 72 | 1010.7 |
| 20260830113723 | 76 | 198 | 2.6 | 9.6 | 0.00 | 0.00 | 0.00 | 72 | 1010.8 |
| 20260830113235 | 76 | 166 | 6.1 | 9.6 | 0.00 | 0.00 | 0.00 | 72 | 1010.7 |
| 20260830113035 | 76 | 173 | 6.1 | 9.6 | 0.00 | 0.00 | 0.00 | 72 | 1008.2 |
| 20260830112748 | 76 | 169 | 7.0 | 9.6 | 0.00 | 0.00 | 0.00 | 72 | 1010.6 |
| 20260830112232 | 76 | 182 | 5.2 | 8.7 | 0.00 | 0.00 | 0.00 | 72 | 1010.7 |
| 20260830111745 | 76 | 170 | 6.1 | 9.6 | 0.00 | 0.00 | 0.00 | 72 | 1010.6 |
| 20260830111537 | 76 | 169 | 6.1 | 9.6 | 0.00 | 0.00 | 0.00 | 72 | 1008.2 |
| 20260830111228 | 76 | 163 | 5.2 | 9.6 | 0.00 | 0.00 | 0.00 | 72 | 1010.7 |
| 20260830110735 | 76 | 171 | 5.2 | 10.4 | 0.00 | 0.00 | 0.00 | 72 | 1010.8 |
| 20260830110247 | 76 | 190 | 6.1 | 10.4 | 0.00 | 0.00 | 0.00 | 73 | 1010.8 |
| 20260830110039 | 76 | 190 | 7.0 | 10.4 | 0.00 | 0.00 | 0.00 | 72 | 1008.4 |
| 20260830105729 | 76 | 181 | 6.1 | 8.7 | 0.00 | 0.00 | 0.00 | 73 | 1010.8 |
| 20260830105239 | 76 | 171 | 5.2 | 8.7 | 0.00 | 0.00 | 0.00 | 73 | 1010.9 |
| 20260830104731 | 76 | 176 | 6.1 | 8.7 | 0.00 | 0.00 | 0.00 | 73 | 1011.0 |
| 20260830104549 | 76 | 197 | 4.3 | 8.7 | 0.00 | 0.00 | 0.00 | 74 | 1008.7 |
| 20260830104241 | 76 | 213 | 5.2 | 8.7 | 0.00 | 0.00 | 0.00 | 73 | 1011.1 |
| 20260830103722 | 76 | 213 | 6.1 | 8.7 | 0.00 | 0.00 | 0.00 | 73 | 1011.1 |
| 20260830103249 | 77 | 203 | 5.2 | 7.8 | 0.00 | 0.00 | 0.00 | 73 | 1011.2 |
| 20260830103057 | 76 | 205 | 4.3 | 7.8 | 0.00 | 0.00 | 0.00 | 73 | 1008.7 |
| 20260830102800 | 77 | 214 | 4.3 | 7.0 | 0.00 | 0.00 | 0.00 | 73 | 1011.2 |
| 20260830102221 | 77 | 211 | 3.5 | 6.1 | 0.00 | 0.00 | 0.00 | 73 | 1011.1 |
| 20260830101733 | 77 | 232 | 3.5 | 5.2 | 0.00 | 0.00 | 0.00 | 74 | 1011.1 |
| 20260830101541 | 77 | 232 | 3.5 | 5.2 | 0.00 | 0.00 | 0.00 | 74 | 1008.7 |
| 20260830101246 | 77 | 232 | 3.5 | 7.0 | 0.00 | 0.00 | 0.00 | 73 | 1011.3 |
| 20260830100726 | 77 | 254 | 3.5 | 7.0 | 0.00 | 0.00 | 0.00 | 72 | 1011.3 |
| 20260830100239 | 77 | 211 | 2.6 | 5.2 | 0.00 | 0.00 | 0.00 | 72 | 1011.2 |
| 20260830100043 | 77 | 211 | 1.7 | 5.2 | 0.00 | 0.00 | 0.00 | 72 | 1008.7 |
| 20260830095748 | 77 | 211 | 3.5 | 5.2 | 0.00 | 0.00 | 0.00 | 72 | 1011.0 |
| 20260830095238 | 77 | 208 | 4.3 | 7.0 | 0.00 | 0.00 | 0.00 | 72 | 1011.1 |
| 20260830094809 | 77 | 226 | 4.3 | 7.0 | 0.00 | 0.00 | 0.00 | 72 | 1011.1 |
| 20260830094554 | 77 | 207 | 4.3 | 7.0 | 0.00 | 0.00 | 0.00 | 72 | 1008.6 |
| 20260830094230 | 77 | 200 | 3.5 | 8.7 | 0.00 | 0.00 | 0.00 | 72 | 1010.9 |
| 20260830093739 | 77 | 213 | 4.3 | 8.7 | 0.00 | 0.00 | 0.00 | 72 | 1010.8 |
| 20260830093222 | 77 | 215 | 5.2 | 8.7 | 0.00 | 0.00 | 0.00 | 72 | 1010.6 |
| 20260830093104 | 77 | 184 | 4.3 | 8.7 | 0.00 | 0.00 | 0.00 | 72 | 1008.2 |
| 20260830093003 | 77 | 184 | 4.3 | 9.6 | 0.00 | 0.00 | 0.00 | 72 | 1008.2 |
| 20260830092734 | 77 | 211 | 5.2 | 9.6 | 0.00 | 0.00 | 0.00 | 72 | 1010.7 |
| 20260830092243 | 77 | 175 | 6.1 | 9.6 | 0.00 | 0.00 | 0.00 | 72 | 1010.6 |
| 20260830091726 | 77 | 182 | 6.1 | 8.7 | 0.00 | 0.00 | 0.00 | 72 | 1010.6 |
| 20260830091503 | 76 | 172 | 5.2 | 10.4 | 0.00 | 0.00 | 0.00 | 72 | 1008.1 |
| 20260830091240 | 77 | 190 | 6.1 | 10.4 | 0.00 | 0.00 | 0.00 | 72 | 1010.6 |
| 20260830090749 | 77 | 170 | 6.1 | 8.7 | 0.00 | 0.00 | 0.00 | 72 | 1010.5 |
| 20260830090232 | 77 | 176 | 6.1 | 8.7 | 0.00 | 0.00 | 0.00 | 72 | 1010.6 |
| 20260830090005 | 76 | 168 | 5.2 | 9.6 | 0.00 | 0.00 | 0.00 | 72 | 1008.1 |
| 20260830085743 | 77 | 189 | 6.1 | 9.6 | 0.00 | 0.00 | 0.00 | 72 | 1010.6 |
| 20260830085227 | 77 | 170 | 6.1 | 9.6 | 0.00 | 0.00 | 0.00 | 72 | 1010.5 |
| 20260830084739 | 77 | 176 | 6.1 | 8.7 | 0.00 | 0.00 | 0.00 | 72 | 1010.4 |
| 20260830084553 | 76 | 172 | 5.2 | 8.7 | 0.00 | 0.00 | 0.00 | 72 | 1008.0 |
| 20260830084226 | 77 | 181 | 6.1 | 8.7 | 0.00 | 0.00 | 0.00 | 72 | 1010.5 |
| 20260830083730 | 77 | 175 | 5.2 | 9.6 | 0.00 | 0.00 | 0.00 | 72 | 1010.6 |
| 20260830083243 | 77 | 167 | 5.2 | 10.4 | 0.00 | 0.00 | 0.00 | 72 | 1010.6 |
| 20260830083104 | 76 | 198 | 6.1 | 10.4 | 0.00 | 0.00 | 0.00 | 72 | 1008.1 |
| 20260830082727 | 77 | 189 | 6.1 | 10.4 | 0.00 | 0.00 | 0.00 | 72 | 1010.4 |
| 20260830082238 | 77 | 193 | 6.1 | 10.4 | 0.00 | 0.00 | 0.00 | 72 | 1010.5 |
| 20260830081748 | 77 | 177 | 7.8 | 10.4 | 0.00 | 0.00 | 0.00 | 72 | 1010.4 |
| 20260830081503 | 77 | 182 | 7.8 | 9.6 | 0.00 | 0.00 | 0.00 | 72 | 1008.0 |
| 20260830081231 | 77 | 165 | 7.8 | 10.4 | 0.00 | 0.00 | 0.00 | 72 | 1010.4 |
| 20260830080741 | 77 | 178 | 7.0 | 10.4 | 0.00 | 0.00 | 0.00 | 71 | 1010.4 |
| 20260830080222 | 77 | 168 | 7.0 | 10.4 | 0.00 | 0.00 | 0.00 | 71 | 1010.4 |
| 20260830080004 | 77 | 167 | 7.0 | 10.4 | 0.00 | 0.00 | 0.00 | 71 | 1008.1 |
| 20260830075730 | 77 | 194 | 7.0 | 12.2 | 0.00 | 0.00 | 0.00 | 71 | 1010.4 |
| 20260830075241 | 77 | 195 | 7.0 | 13.0 | 0.00 | 0.00 | 0.00 | 71 | 1010.3 |
| 20260830074726 | 77 | 153 | 7.8 | 12.2 | 0.00 | 0.00 | 0.00 | 71 | 1010.3 |
| 20260830074500 | 77 | 169 | 7.0 | 10.4 | 0.00 | 0.00 | 0.00 | 71 | 1007.8 |
| 20260830074239 | 78 | 178 | 7.0 | 10.4 | 0.00 | 0.00 | 0.00 | 71 | 1010.3 |
| 20260830073809 | 78 | 196 | 7.8 | 10.4 | 0.00 | 0.00 | 0.00 | 71 | 1010.3 |
| 20260830073230 | 78 | 169 | 7.8 | 10.4 | 0.00 | 0.00 | 0.00 | 71 | 1010.3 |
| 20260830073040 | 77 | 169 | 7.0 | 10.4 | 0.00 | 0.00 | 0.00 | 71 | 1008.0 |
| 20260830072757 | 78 | 182 | 7.0 | 11.3 | 0.00 | 0.00 | 0.00 | 71 | 1010.3 |
| 20260830072247 | 78 | 172 | 7.0 | 13.0 | 0.00 | 0.00 | 0.00 | 71 | 1010.3 |
| 20260830071739 | 78 | 174 | 6.1 | 13.0 | 0.00 | 0.00 | 0.00 | 70 | 1010.3 |
| 20260830071503 | 77 | 167 | 7.8 | 15.6 | 0.00 | 0.00 | 0.00 | 70 | 1007.9 |
| 20260830071251 | 78 | 169 | 7.8 | 15.6 | 0.00 | 0.00 | 0.00 | 70 | 1010.3 |
| 20260830070732 | 78 | 174 | 8.7 | 15.6 | 0.00 | 0.00 | 0.00 | 70 | 1010.3 |
| 20260830070242 | 78 | 170 | 7.0 | 12.2 | 0.00 | 0.00 | 0.00 | 70 | 1010.5 |
| 20260830070058 | 78 | 171 | 7.0 | 11.3 | 0.00 | 0.00 | 0.00 | 70 | 1008.0 |
| 20260830070006 | 78 | 166 | 7.0 | 11.3 | 0.00 | 0.00 | 0.00 | 70 | 1008.0 |
| 20260830065722 | 78 | 174 | 7.8 | 12.2 | 0.00 | 0.00 | 0.00 | 70 | 1010.4 |
| 20260830065234 | 78 | 153 | 7.8 | 11.3 | 0.00 | 0.00 | 0.00 | 70 | 1010.4 |
| 20260830064802 | 79 | 192 | 7.8 | 12.2 | 0.00 | 0.00 | 0.00 | 70 | 1010.4 |
| 20260830064539 | 78 | 174 | 6.1 | 12.2 | 0.00 | 0.00 | 0.00 | 70 | 1008.0 |
| 20260830064224 | 79 | 181 | 7.8 | 12.2 | 0.00 | 0.00 | 0.00 | 70 | 1010.5 |
| 20260830063733 | 79 | 200 | 8.7 | 12.2 | 0.00 | 0.00 | 0.00 | 70 | 1010.6 |
| 20260830063245 | 79 | 157 | 7.0 | 11.3 | 0.00 | 0.00 | 0.00 | 69 | 1010.6 |
| 20260830063033 | 79 | 196 | 8.7 | 11.3 | 0.00 | 0.00 | 0.00 | 69 | 1008.2 |
| 20260830062728 | 79 | 179 | 8.7 | 15.6 | 0.00 | 0.00 | 0.00 | 69 | 1010.6 |
| 20260830062239 | 79 | 162 | 7.8 | 15.6 | 0.00 | 0.00 | 0.00 | 69 | 1010.6 |
| 20260830061723 | 79 | 199 | 8.7 | 13.0 | 0.00 | 0.00 | 0.00 | 69 | 1010.6 |
| 20260830061533 | 79 | 173 | 9.6 | 13.0 | 0.00 | 0.00 | 0.00 | 69 | 1008.2 |
| 20260830061230 | 79 | 175 | 9.6 | 14.8 | 0.00 | 0.00 | 0.00 | 69 | 1010.7 |
| 20260830060742 | 80 | 175 | 9.6 | 12.2 | 0.00 | 0.00 | 0.00 | 69 | 1010.6 |
| 20260830060226 | 80 | 205 | 9.6 | 12.2 | 0.00 | 0.00 | 0.00 | 69 | 1010.6 |
| 20260830060026 | 79 | 180 | 8.7 | 12.2 | 0.00 | 0.00 | 0.00 | 69 | 1008.2 |
| 20260830055758 | 80 | 161 | 9.6 | 12.2 | 0.00 | 0.00 | 0.00 | 69 | 1010.6 |
| 20260830055248 | 80 | 194 | 9.6 | 12.2 | 0.00 | 0.00 | 0.00 | 68 | 1010.7 |
| 20260830054732 | 80 | 170 | 10.4 | 14.8 | 0.00 | 0.00 | 0.00 | 68 | 1010.6 |
| 20260830054502 | 80 | 163 | 9.6 | 14.8 | 0.00 | 0.00 | 0.00 | 68 | 1008.2 |
| 20260830054226 | 80 | 166 | 8.7 | 14.8 | 0.00 | 0.00 | 0.00 | 68 | 1010.6 |
| 20260830053735 | 80 | 207 | 9.6 | 13.9 | 0.00 | 0.00 | 0.00 | 68 | 1010.6 |
| 20260830053242 | 80 | 163 | 9.6 | 13.9 | 0.00 | 0.00 | 0.00 | 68 | 1010.5 |
| 20260830053101 | 80 | 184 | 8.7 | 13.9 | 0.00 | 0.00 | 0.00 | 68 | 1008.1 |
| 20260830053019 | 80 | 182 | 8.7 | 13.9 | 0.00 | 0.00 | 0.00 | 68 | 1008.1 |
| 20260830052726 | 80 | 185 | 9.6 | 12.2 | 0.00 | 0.00 | 0.00 | 68 | 1010.6 |
| 20260830052236 | 81 | 180 | 7.8 | 12.2 | 0.00 | 0.00 | 0.00 | 68 | 1010.6 |
| 20260830051748 | 81 | 196 | 8.7 | 12.2 | 0.00 | 0.00 | 0.00 | 68 | 1010.5 |
| 20260830051519 | 80 | 176 | 7.8 | 13.9 | 0.00 | 0.00 | 0.00 | 68 | 1008.1 |
| 20260830051231 | 81 | 153 | 8.7 | 13.9 | 0.00 | 0.00 | 0.00 | 68 | 1010.4 |
| 20260830050740 | 81 | 169 | 8.7 | 13.9 | 0.00 | 0.00 | 0.00 | 68 | 1010.4 |
| 20260830050310 | 81 | 167 | 8.7 | 11.3 | 0.00 | 0.00 | 0.00 | 67 | 1010.4 |
| 20260830050042 | 81 | 158 | 8.7 | 13.0 | 0.00 | 0.00 | 0.00 | 67 | 1008.0 |
| 20260830045729 | 81 | 180 | 8.7 | 14.8 | 0.00 | 0.00 | 0.00 | 67 | 1010.4 |
| 20260830045241 | 81 | 174 | 8.7 | 14.8 | 0.00 | 0.00 | 0.00 | 67 | 1010.4 |
| 20260830044723 | 82 | 171 | 8.7 | 11.3 | 0.00 | 0.00 | 0.00 | 67 | 1010.4 |
| 20260830044546 | 81 | 163 | 7.8 | 12.2 | 0.00 | 0.00 | 0.00 | 67 | 1008.0 |
| 20260830044237 | 82 | 180 | 7.8 | 12.2 | 0.00 | 0.00 | 0.00 | 67 | 1010.4 |
| 20260830043746 | 82 | 172 | 8.7 | 12.2 | 0.00 | 0.00 | 0.00 | 67 | 1010.4 |
| 20260830043227 | 82 | 151 | 7.8 | 14.8 | 0.00 | 0.00 | 0.00 | 66 | 1010.4 |
| 20260830043057 | 82 | 167 | 7.8 | 14.8 | 0.00 | 0.00 | 0.00 | 66 | 1008.0 |
| 20260830042740 | 82 | 171 | 10.4 | 14.8 | 0.00 | 0.00 | 0.00 | 66 | 1010.4 |
| 20260830042250 | 82 | 163 | 8.7 | 13.9 | 0.00 | 0.00 | 0.00 | 66 | 1010.4 |
| 20260830041728 | 82 | 165 | 9.6 | 13.0 | 0.00 | 0.00 | 0.00 | 66 | 1010.3 |
| 20260830041602 | 82 | 173 | 7.8 | 13.9 | 0.00 | 0.00 | 0.00 | 66 | 1007.9 |
| 20260830041303 | 82 | 196 | 10.4 | 15.6 | 0.00 | 0.00 | 0.00 | 66 | 1010.3 |
| 20260830040724 | 83 | 184 | 9.6 | 14.8 | 0.00 | 0.00 | 0.00 | 66 | 1010.4 |
| 20260830040236 | 83 | 163 | 10.4 | 15.6 | 0.00 | 0.00 | 0.00 | 66 | 1010.5 |
| 20260830040036 | 82 | 165 | 7.8 | 14.8 | 0.00 | 0.00 | 0.00 | 66 | 1008.0 |
| 20260830035748 | 83 | 170 | 9.6 | 13.9 | 0.00 | 0.00 | 0.00 | 66 | 1010.4 |
| 20260830035231 | 83 | 175 | 9.6 | 13.0 | 0.00 | 0.00 | 0.00 | 66 | 1010.3 |
| 20260830034741 | 83 | 184 | 10.4 | 17.4 | 0.00 | 0.00 | 0.00 | 67 | 1010.3 |
| 20260830034530 | 82 | 179 | 11.3 | 17.4 | 0.00 | 0.00 | 0.00 | 67 | 1007.9 |
| 20260830034223 | 83 | 132 | 12.2 | 17.4 | 0.00 | 0.00 | 0.00 | 67 | 1010.3 |
| 20260830033749 | 83 | 159 | 9.6 | 13.9 | 0.00 | 0.00 | 0.00 | 67 | 1010.3 |
| 20260830033231 | 83 | 176 | 9.6 | 14.8 | 0.00 | 0.00 | 0.00 | 67 | 1010.1 |
| 20260830033037 | 83 | 188 | 9.6 | 14.8 | 0.00 | 0.00 | 0.00 | 67 | 1007.7 |
| 20260830032802 | 83 | 134 | 9.6 | 16.5 | 0.00 | 0.00 | 0.00 | 67 | 1010.2 |
| 20260830032223 | 83 | 193 | 9.6 | 16.5 | 0.00 | 0.00 | 0.00 | 67 | 1010.0 |
| 20260830031734 | 83 | 165 | 9.6 | 15.6 | 0.00 | 0.00 | 0.00 | 68 | 1010.1 |
| 20260830031517 | 83 | 143 | 9.6 | 13.9 | 0.00 | 0.00 | 0.00 | 68 | 1007.7 |
| 20260830031246 | 83 | 174 | 8.7 | 13.0 | 0.00 | 0.00 | 0.00 | 68 | 1010.2 |
| 20260830030727 | 83 | 180 | 9.6 | 13.9 | 0.00 | 0.00 | 0.00 | 68 | 1010.2 |
| 20260830030255 | 83 | 164 | 8.7 | 15.6 | 0.00 | 0.00 | 0.00 | 68 | 1010.2 |
| 20260830030054 | 83 | 176 | 8.7 | 13.9 | 0.00 | 0.00 | 0.00 | 68 | 1007.8 |
| 20260830025744 | 83 | 186 | 8.7 | 14.8 | 0.00 | 0.00 | 0.00 | 68 | 1010.2 |
| 20260830025237 | 83 | 178 | 9.6 | 14.8 | 0.00 | 0.00 | 0.00 | 68 | 1010.0 |
| 20260830024748 | 83 | 185 | 9.6 | 13.9 | 0.00 | 0.00 | 0.00 | 68 | 1010.0 |
| 20260830024541 | 83 | 167 | 10.4 | 14.8 | 0.00 | 0.00 | 0.00 | 68 | 1007.6 |
| 20260830024234 | 83 | 187 | 8.7 | 13.0 | 0.00 | 0.00 | 0.00 | 69 | 1010.0 |
| 20260830023743 | 84 | 180 | 10.4 | 16.5 | 0.00 | 0.00 | 0.00 | 69 | 1009.9 |